Time,TemperatureF,DewpointF,PressureIn,WindDirection,WindDirectionDegrees,WindSpeedMPH,WindSpeedGustMPH,Humidity,HourlyPrecipIn,Conditions,Clouds,dailyrainin,SolarRadiationWatts/m^2,SoftwareType,DateUTC
2013-08-26 00:02:00,85.0,74.0,-100.00,SE,137,0.0,5.0,70,0.00,,,0.00,207.000000,,2013-08-26 00:02:00,
2013-08-26 00:11:00,85.0,74.0,-100.00,SE,137,0.0,5.0,70,0.00,,,0.00,207.000000,,2013-08-26 00:11:00,
2013-08-26 00:22:00,85.0,74.0,-100.00,SE,137,0.0,5.0,70,0.00,,,0.00,207.000000,,2013-08-26 00:22:00,
2013-08-26 00:31:00,78.0,77.0,-100.00,NW,313,0.0,0.0,97,0.00,,,0.00,43.000000,,2013-08-26 00:31:00,
2013-08-26 00:52:00,78.0,77.0,-100.00,NW,313,0.0,0.0,97,0.00,,,0.00,43.000000,,2013-08-26 00:52:00,
2013-08-26 01:01:00,78.0,77.0,-100.00,NW,313,0.0,0.0,97,0.00,,,0.00,43.000000,,2013-08-26 01:01:00,
2013-08-26 01:11:00,78.0,77.0,-100.00,NW,313,0.0,0.0,97,0.00,,,0.00,43.000000,,2013-08-26 01:11:00,
2013-08-26 01:22:00,78.0,77.0,-100.00,NW,313,0.0,0.0,97,0.00,,,0.00,43.000000,,2013-08-26 01:22:00,
2013-08-26 01:31:00,74.0,74.0,-100.00,ENE,65,0.0,0.0,100,0.00,,,0.00,1.000000,,2013-08-26 01:31:00,
2013-08-26 01:52:00,74.0,74.0,-100.00,ENE,65,0.0,0.0,100,0.00,,,0.00,1.000000,,2013-08-26 01:52:00,
2013-08-26 02:02:00,74.0,74.0,-100.00,ENE,65,0.0,0.0,100,0.00,,,0.00,1.000000,,2013-08-26 02:02:00,
2013-08-26 02:11:00,74.0,74.0,-100.00,ENE,65,0.0,0.0,100,0.00,,,0.00,1.000000,,2013-08-26 02:11:00,
2013-08-26 02:22:00,74.0,74.0,-100.00,ENE,65,0.0,0.0,100,0.00,,,0.00,1.000000,,2013-08-26 02:22:00,
2013-08-26 02:31:00,73.0,73.0,-100.00,SE,141,0.0,2.0,100,0.00,,,0.00,0.000000,,2013-08-26 02:31:00,
2013-08-26 02:52:00,73.0,73.0,-100.00,SE,141,0.0,2.0,100,0.00,,,0.00,0.000000,,2013-08-26 02:52:00,
2013-08-26 03:02:00,73.0,73.0,-100.00,SE,141,0.0,2.0,100,0.00,,,0.00,0.000000,,2013-08-26 03:02:00,
2013-08-26 03:11:00,73.0,73.0,-100.00,SE,141,0.0,2.0,100,0.00,,,0.00,0.000000,,2013-08-26 03:11:00,
2013-08-26 03:22:00,73.0,73.0,-100.00,SE,141,0.0,2.0,100,0.00,,,0.00,0.000000,,2013-08-26 03:22:00,
2013-08-26 03:31:00,72.0,72.0,-100.00,SE,132,0.0,1.0,100,0.00,,,0.00,0.000000,,2013-08-26 03:31:00,
2013-08-26 03:56:00,72.0,72.0,-100.00,SE,132,0.0,1.0,100,0.00,,,0.00,0.000000,,2013-08-26 03:56:00,
2013-08-26 04:05:00,72.0,72.0,-100.00,SE,132,0.0,1.0,100,0.00,,,0.00,0.000000,,2013-08-26 04:05:00,
2013-08-26 04:14:00,72.0,72.0,-100.00,SE,132,0.0,1.0,100,0.00,,,0.00,0.000000,,2013-08-26 04:14:00,
2013-08-26 04:24:00,72.0,72.0,-100.00,SE,132,0.0,1.0,100,0.00,,,0.00,0.000000,,2013-08-26 04:24:00,
2013-08-26 04:31:00,71.0,71.0,-100.00,SW,214,0.0,2.0,100,0.00,,,0.00,0.000000,,2013-08-26 04:31:00,
2013-08-26 04:53:00,71.0,71.0,-100.00,SW,214,0.0,2.0,100,0.00,,,0.00,0.000000,,2013-08-26 04:53:00,
2013-08-26 05:03:00,71.0,71.0,-100.00,SW,214,0.0,2.0,100,0.00,,,0.00,0.000000,,2013-08-26 05:03:00,
2013-08-26 05:13:00,71.0,71.0,-100.00,SW,214,0.0,2.0,100,0.00,,,0.00,0.000000,,2013-08-26 05:13:00,
2013-08-26 05:23:00,71.0,71.0,-100.00,SW,214,0.0,2.0,100,0.00,,,0.00,0.000000,,2013-08-26 05:23:00,
2013-08-26 05:31:00,70.0,70.0,-100.00,ESE,118,0.0,1.0,100,0.00,,,0.00,0.000000,,2013-08-26 05:31:00,
2013-08-26 05:52:00,70.0,70.0,-100.00,ESE,118,0.0,1.0,100,0.00,,,0.00,0.000000,,2013-08-26 05:52:00,
2013-08-26 06:02:00,70.0,70.0,-100.00,ESE,118,0.0,1.0,100,0.00,,,0.00,0.000000,,2013-08-26 06:02:00,
2013-08-26 06:12:00,70.0,70.0,-100.00,ESE,118,0.0,1.0,100,0.00,,,0.00,0.000000,,2013-08-26 06:12:00,
2013-08-26 06:21:00,70.0,70.0,-100.00,ESE,118,0.0,1.0,100,0.00,,,0.00,0.000000,,2013-08-26 06:21:00,
2013-08-26 06:31:00,70.0,70.0,-100.00,South,173,0.0,2.0,100,0.00,,,0.00,0.000000,,2013-08-26 06:31:00,
2013-08-26 06:52:00,70.0,70.0,-100.00,South,173,0.0,2.0,100,0.00,,,0.00,0.000000,,2013-08-26 06:52:00,
2013-08-26 07:02:00,70.0,70.0,-100.00,South,173,0.0,2.0,100,0.00,,,0.00,0.000000,,2013-08-26 07:02:00,
2013-08-26 07:11:00,70.0,70.0,-100.00,South,173,0.0,2.0,100,0.00,,,0.00,0.000000,,2013-08-26 07:11:00,
2013-08-26 07:22:00,70.0,70.0,-100.00,South,173,0.0,2.0,100,0.00,,,0.00,0.000000,,2013-08-26 07:22:00,
2013-08-26 07:31:00,72.0,72.0,-100.00,East,82,1.0,5.0,100,0.00,,,0.00,0.000000,,2013-08-26 07:31:00,
2013-08-26 07:52:00,72.0,72.0,-100.00,East,82,1.0,5.0,100,0.00,,,0.00,0.000000,,2013-08-26 07:52:00,
2013-08-26 08:02:00,72.0,72.0,-100.00,East,82,1.0,5.0,100,0.00,,,0.00,0.000000,,2013-08-26 08:02:00,
2013-08-26 08:12:00,72.0,72.0,-100.00,East,82,1.0,5.0,100,0.00,,,0.00,0.000000,,2013-08-26 08:12:00,
2013-08-26 08:22:00,72.0,72.0,-100.00,East,82,1.0,5.0,100,0.00,,,0.00,0.000000,,2013-08-26 08:22:00,
2013-08-26 08:31:00,72.0,72.0,-100.00,SSW,195,2.0,5.0,100,0.00,,,0.00,0.000000,,2013-08-26 08:31:00,
2013-08-26 09:11:00,72.0,72.0,-100.00,SSW,195,2.0,5.0,100,0.00,,,0.00,0.000000,,2013-08-26 09:11:00,
2013-08-26 09:21:00,72.0,72.0,-100.00,SSW,195,2.0,5.0,100,0.00,,,0.00,0.000000,,2013-08-26 09:21:00,
2013-08-26 09:31:00,72.0,72.0,-100.00,SSW,204,2.0,6.0,100,0.00,,,0.00,0.000000,,2013-08-26 09:31:00,
2013-08-26 09:54:00,72.0,72.0,-100.00,SSW,204,2.0,6.0,100,0.00,,,0.00,0.000000,,2013-08-26 09:54:00,
2013-08-26 10:03:00,72.0,72.0,-100.00,SSW,204,2.0,6.0,100,0.00,,,0.00,0.000000,,2013-08-26 10:03:00,
2013-08-26 10:12:00,72.0,72.0,-100.00,SSW,204,2.0,6.0,100,0.00,,,0.00,0.000000,,2013-08-26 10:12:00,
2013-08-26 10:23:00,72.0,72.0,-100.00,SSW,204,2.0,6.0,100,0.00,,,0.00,0.000000,,2013-08-26 10:23:00,
2013-08-26 10:31:00,71.0,71.0,-100.00,South,181,2.0,6.0,100,0.00,,,0.00,0.000000,,2013-08-26 10:31:00,
2013-08-26 10:52:00,71.0,71.0,-100.00,South,181,2.0,6.0,100,0.00,,,0.00,0.000000,,2013-08-26 10:52:00,
2013-08-26 11:02:00,71.0,71.0,-100.00,South,181,2.0,6.0,100,0.00,,,0.00,0.000000,,2013-08-26 11:02:00,
2013-08-26 11:12:00,71.0,71.0,-100.00,South,181,2.0,6.0,100,0.00,,,0.00,0.000000,,2013-08-26 11:12:00,
2013-08-26 11:22:00,71.0,71.0,-100.00,South,181,2.0,6.0,100,0.00,,,0.00,0.000000,,2013-08-26 11:22:00,
2013-08-26 11:31:00,71.0,71.0,-100.00,SSE,166,2.0,5.0,100,0.00,,,0.00,2.000000,,2013-08-26 11:31:00,
2013-08-26 11:52:00,71.0,71.0,-100.00,SSE,166,2.0,5.0,100,0.00,,,0.00,2.000000,,2013-08-26 11:52:00,
2013-08-26 12:01:00,71.0,71.0,-100.00,SSE,166,2.0,5.0,100,0.00,,,0.00,2.000000,,2013-08-26 12:01:00,
2013-08-26 12:12:00,71.0,71.0,-100.00,SSE,166,2.0,5.0,100,0.00,,,0.00,2.000000,,2013-08-26 12:12:00,
2013-08-26 12:22:00,71.0,71.0,-100.00,SSE,166,2.0,5.0,100,0.00,,,0.00,2.000000,,2013-08-26 12:22:00,
2013-08-26 12:31:00,73.0,73.0,-100.00,South,181,2.0,5.0,100,0.00,,,0.00,68.000000,,2013-08-26 12:31:00,
2013-08-26 12:52:00,73.0,73.0,-100.00,South,181,2.0,5.0,100,0.00,,,0.00,68.000000,,2013-08-26 12:52:00,
2013-08-26 13:02:00,73.0,73.0,-100.00,South,181,2.0,5.0,100,0.00,,,0.00,68.000000,,2013-08-26 13:02:00,
2013-08-26 13:12:00,73.0,73.0,-100.00,South,181,2.0,5.0,100,0.00,,,0.00,68.000000,,2013-08-26 13:12:00,
2013-08-26 13:21:00,73.0,73.0,-100.00,South,181,2.0,5.0,100,0.00,,,0.00,68.000000,,2013-08-26 13:21:00,
2013-08-26 13:31:00,77.0,75.0,-100.00,SSW,197,3.0,8.0,93,0.00,,,0.00,232.000000,,2013-08-26 13:31:00,
2013-08-26 13:52:00,77.0,75.0,-100.00,SSW,197,3.0,8.0,93,0.00,,,0.00,232.000000,,2013-08-26 13:52:00,
2013-08-26 14:02:00,77.0,75.0,-100.00,SSW,197,3.0,8.0,93,0.00,,,0.00,232.000000,,2013-08-26 14:02:00,
2013-08-26 14:11:00,77.0,75.0,-100.00,SSW,197,3.0,8.0,93,0.00,,,0.00,232.000000,,2013-08-26 14:11:00,
2013-08-26 14:22:00,77.0,75.0,-100.00,SSW,197,3.0,8.0,93,0.00,,,0.00,232.000000,,2013-08-26 14:22:00,
2013-08-26 14:31:00,77.0,74.0,-100.00,SSW,195,3.0,8.0,92,0.00,,,0.00,234.000000,,2013-08-26 14:31:00,
2013-08-26 14:52:00,77.0,74.0,-100.00,SSW,195,3.0,8.0,92,0.00,,,0.00,234.000000,,2013-08-26 14:52:00,
2013-08-26 15:01:00,77.0,74.0,-100.00,SSW,195,3.0,8.0,92,0.00,,,0.00,234.000000,,2013-08-26 15:01:00,
2013-08-26 15:12:00,77.0,74.0,-100.00,SSW,195,3.0,8.0,92,0.00,,,0.00,234.000000,,2013-08-26 15:12:00,
2013-08-26 15:22:00,77.0,74.0,-100.00,SSW,195,3.0,8.0,92,0.00,,,0.00,234.000000,,2013-08-26 15:22:00,
2013-08-26 15:31:00,82.0,74.0,-100.00,WSW,248,4.0,9.0,78,0.00,,,0.00,585.000000,,2013-08-26 15:31:00,
2013-08-26 15:59:00,82.0,74.0,-100.00,WSW,248,4.0,9.0,78,0.00,,,0.00,585.000000,,2013-08-26 15:59:00,
2013-08-26 16:10:00,82.0,74.0,-100.00,WSW,248,4.0,9.0,78,0.00,,,0.00,585.000000,,2013-08-26 16:10:00,
2013-08-26 16:17:00,82.0,74.0,-100.00,WSW,248,4.0,9.0,78,0.00,,,0.00,585.000000,,2013-08-26 16:17:00,
2013-08-26 16:29:00,82.0,74.0,-100.00,WSW,248,4.0,9.0,78,0.00,,,0.00,585.000000,,2013-08-26 16:29:00,
2013-08-26 16:31:00,84.0,74.0,-100.00,SW,218,3.0,9.0,71,0.00,,,0.00,759.000000,,2013-08-26 16:31:00,
2013-08-26 16:59:00,84.0,74.0,-100.00,SW,218,3.0,9.0,71,0.00,,,0.00,759.000000,,2013-08-26 16:59:00,
2013-08-26 17:06:00,84.0,74.0,-100.00,SW,218,3.0,9.0,71,0.00,,,0.00,759.000000,,2013-08-26 17:06:00,
2013-08-26 17:12:00,84.0,74.0,-100.00,SW,218,3.0,9.0,71,0.00,,,0.00,759.000000,,2013-08-26 17:12:00,
2013-08-26 17:24:00,84.0,74.0,-100.00,SW,218,3.0,9.0,71,0.00,,,0.00,759.000000,,2013-08-26 17:24:00,
2013-08-26 17:31:00,85.0,73.0,-100.00,WSW,249,5.0,9.0,68,0.00,,,0.00,824.000000,,2013-08-26 17:31:00,
2013-08-26 17:53:00,85.0,73.0,-100.00,WSW,249,5.0,9.0,68,0.00,,,0.00,824.000000,,2013-08-26 17:53:00,
2013-08-26 18:01:00,85.0,73.0,-100.00,WSW,249,5.0,9.0,68,0.00,,,0.00,824.000000,,2013-08-26 18:01:00,
2013-08-26 18:12:00,85.0,73.0,-100.00,WSW,249,5.0,9.0,68,0.00,,,0.00,824.000000,,2013-08-26 18:12:00,
2013-08-26 18:22:00,85.0,73.0,-100.00,WSW,249,5.0,9.0,68,0.00,,,0.00,824.000000,,2013-08-26 18:22:00,
2013-08-26 18:31:00,87.0,72.0,-100.00,West,265,3.0,10.0,62,0.00,,,0.00,850.000000,,2013-08-26 18:31:00,
2013-08-26 18:52:00,87.0,72.0,-100.00,West,265,3.0,10.0,62,0.00,,,0.00,850.000000,,2013-08-26 18:52:00,
2013-08-26 19:02:00,87.0,72.0,-100.00,West,265,3.0,10.0,62,0.00,,,0.00,850.000000,,2013-08-26 19:02:00,
2013-08-26 19:11:00,87.0,72.0,-100.00,West,265,3.0,10.0,62,0.00,,,0.00,850.000000,,2013-08-26 19:11:00,
2013-08-26 19:22:00,87.0,72.0,-100.00,West,265,3.0,10.0,62,0.00,,,0.00,850.000000,,2013-08-26 19:22:00,
2013-08-26 19:31:00,87.0,72.0,-100.00,WSW,258,4.0,9.0,62,0.00,,,0.00,788.000000,,2013-08-26 19:31:00,
2013-08-26 19:52:00,87.0,72.0,-100.00,WSW,258,4.0,9.0,62,0.00,,,0.00,788.000000,,2013-08-26 19:52:00,
2013-08-26 20:02:00,87.0,72.0,-100.00,WSW,258,4.0,9.0,62,0.00,,,0.00,788.000000,,2013-08-26 20:02:00,
2013-08-26 20:11:00,87.0,72.0,-100.00,WSW,258,4.0,9.0,62,0.00,,,0.00,788.000000,,2013-08-26 20:11:00,
2013-08-26 20:22:00,87.0,72.0,-100.00,WSW,258,4.0,9.0,62,0.00,,,0.00,788.000000,,2013-08-26 20:22:00,
2013-08-26 20:31:00,88.0,74.0,-100.00,SW,223,3.0,8.0,63,0.00,,,0.00,725.000000,,2013-08-26 20:31:00,
2013-08-26 20:52:00,88.0,74.0,-100.00,SW,223,3.0,8.0,63,0.00,,,0.00,725.000000,,2013-08-26 20:52:00,
2013-08-26 21:01:00,88.0,74.0,-100.00,SW,223,3.0,8.0,63,0.00,,,0.00,725.000000,,2013-08-26 21:01:00,
2013-08-26 21:11:00,88.0,74.0,-100.00,SW,223,3.0,8.0,63,0.00,,,0.00,725.000000,,2013-08-26 21:11:00,
2013-08-26 21:22:00,88.0,74.0,-100.00,SW,223,3.0,8.0,63,0.00,,,0.00,725.000000,,2013-08-26 21:22:00,
2013-08-26 21:31:00,84.0,74.0,-100.00,South,170,2.0,8.0,72,0.00,,,0.00,333.000000,,2013-08-26 21:31:00,
2013-08-26 21:55:00,84.0,74.0,-100.00,South,170,2.0,8.0,72,0.00,,,0.00,333.000000,,2013-08-26 21:55:00,
2013-08-26 22:07:00,84.0,74.0,-100.00,South,170,2.0,8.0,72,0.00,,,0.00,333.000000,,2013-08-26 22:07:00,
2013-08-26 22:16:00,84.0,74.0,-100.00,South,170,2.0,8.0,72,0.00,,,0.00,333.000000,,2013-08-26 22:16:00,
2013-08-26 22:26:00,84.0,74.0,-100.00,South,170,2.0,8.0,72,0.00,,,0.00,333.000000,,2013-08-26 22:26:00,
2013-08-26 22:31:00,86.0,74.0,-100.00,South,181,3.0,8.0,68,0.00,,,0.00,171.000000,,2013-08-26 22:31:00,
2013-08-26 22:53:00,86.0,74.0,-100.00,South,181,3.0,8.0,68,0.00,,,0.00,171.000000,,2013-08-26 22:53:00,
2013-08-26 23:03:00,86.0,74.0,-100.00,South,181,3.0,8.0,68,0.00,,,0.00,171.000000,,2013-08-26 23:03:00,
2013-08-26 23:12:00,86.0,74.0,-100.00,South,181,3.0,8.0,68,0.00,,,0.00,171.000000,,2013-08-26 23:12:00,
2013-08-26 23:22:00,86.0,74.0,-100.00,South,181,3.0,8.0,68,0.00,,,0.00,171.000000,,2013-08-26 23:22:00,
2013-08-26 23:31:00,82.0,74.0,-100.00,South,189,2.0,7.0,77,0.00,,,0.00,161.000000,,2013-08-26 23:31:00,
2013-08-26 23:52:00,82.0,74.0,-100.00,South,189,2.0,7.0,77,0.00,,,0.00,161.000000,,2013-08-26 23:52:00,